Year,Month,Day,Hour,Minute,Value (Times are PST for windspeed in km/hr)
2019,06,06,00,00,1.70
2019,06,06,00,01,4.80
2019,06,06,00,02,4.90
2019,06,06,00,03,5.60
2019,06,06,00,04,4.60
2019,06,06,00,05,4.50
2019,06,06,00,06,4.20
2019,06,06,00,07,4.10
2019,06,06,00,08,2.40
2019,06,06,00,09,3.40
2019,06,06,00,10,4.70
2019,06,06,00,11,3.50
2019,06,06,00,12,2.70
2019,06,06,00,13,1.00
2019,06,06,00,14,0.50
2019,06,06,00,15,6.10
2019,06,06,00,16,4.90
2019,06,06,00,17,3.50
2019,06,06,00,18,3.10
2019,06,06,00,19,2.70
2019,06,06,00,20,1.30
2019,06,06,00,21,1.60
2019,06,06,00,22,1.20
2019,06,06,00,23,1.60
2019,06,06,00,24,0.90
2019,06,06,00,25,2.80
2019,06,06,00,26,2.30
2019,06,06,00,27,1.30
2019,06,06,00,28,0.60
2019,06,06,00,29,0.50
2019,06,06,00,30,3.30
2019,06,06,00,31,3.60
2019,06,06,00,32,3.40
2019,06,06,00,33,3.20
2019,06,06,00,34,2.40
2019,06,06,00,35,3.30
2019,06,06,00,36,3.70
2019,06,06,00,37,3.80
2019,06,06,00,38,3.40
2019,06,06,00,39,2.60
2019,06,06,00,40,3.60
2019,06,06,00,41,3.30
2019,06,06,00,42,3.10
2019,06,06,00,43,4.20
2019,06,06,00,44,2.70
2019,06,06,00,45,4.90
2019,06,06,00,46,3.90
2019,06,06,00,47,4.70
2019,06,06,00,48,5.10
2019,06,06,00,49,4.90
2019,06,06,00,50,3.50
2019,06,06,00,51,2.10
2019,06,06,00,52,4.00
2019,06,06,00,53,3.00
2019,06,06,00,54,3.70
2019,06,06,00,55,3.70
2019,06,06,00,56,3.60
2019,06,06,00,57,4.80
2019,06,06,00,58,3.10
2019,06,06,00,59,6.20
2019,06,06,01,00,5.70
2019,06,06,01,01,4.10
2019,06,06,01,02,5.10
2019,06,06,01,03,3.60
2019,06,06,01,04,6.10
2019,06,06,01,05,3.80
2019,06,06,01,06,2.40
2019,06,06,01,07,1.90
2019,06,06,01,08,0.50
2019,06,06,01,09,3.20
2019,06,06,01,10,1.20
2019,06,06,01,11,4.20
2019,06,06,01,12,3.10
2019,06,06,01,13,1.30
2019,06,06,01,14,4.80
2019,06,06,01,15,5.80
2019,06,06,01,16,2.10
2019,06,06,01,17,0.90
2019,06,06,01,18,3.80
2019,06,06,01,19,2.30
2019,06,06,01,20,3.30
2019,06,06,01,21,2.60
2019,06,06,01,22,3.30
2019,06,06,01,23,2.30
2019,06,06,01,24,1.30
2019,06,06,01,25,2.60
2019,06,06,01,26,3.80
2019,06,06,01,27,3.70
2019,06,06,01,28,5.10
2019,06,06,01,29,2.50
2019,06,06,01,30,3.60
2019,06,06,01,31,5.50
2019,06,06,01,32,3.00
2019,06,06,01,33,7.50
2019,06,06,01,34,3.50
2019,06,06,01,35,2.00
2019,06,06,01,36,1.50
2019,06,06,01,37,3.00
2019,06,06,01,38,3.00
2019,06,06,01,39,4.60
2019,06,06,01,40,2.60
2019,06,06,01,41,1.80
2019,06,06,01,42,2.60
2019,06,06,01,43,3.40
2019,06,06,01,44,3.40
2019,06,06,01,45,4.30
2019,06,06,01,46,3.50
2019,06,06,01,47,3.60
2019,06,06,01,48,3.00
2019,06,06,01,49,4.30
2019,06,06,01,50,3.70
2019,06,06,01,51,3.10
2019,06,06,01,52,1.70
2019,06,06,01,53,1.00
2019,06,06,01,54,3.40
2019,06,06,01,55,1.70
2019,06,06,01,56,3.20
2019,06,06,01,57,3.60
2019,06,06,01,58,4.30
2019,06,06,01,59,3.00
2019,06,06,02,00,3.10
2019,06,06,02,01,1.80
2019,06,06,02,02,0.90
2019,06,06,02,03,3.30
2019,06,06,02,04,4.20
2019,06,06,02,05,2.50
2019,06,06,02,06,1.10
2019,06,06,02,07,2.70
2019,06,06,02,08,3.40
2019,06,06,02,09,2.00
2019,06,06,02,10,2.00
2019,06,06,02,11,3.20
2019,06,06,02,12,2.20
2019,06,06,02,13,2.90
2019,06,06,02,14,1.60
2019,06,06,02,15,1.30
2019,06,06,02,16,1.00
2019,06,06,02,17,0.70
2019,06,06,02,18,0.00
2019,06,06,02,19,0.20
2019,06,06,02,20,0.80
2019,06,06,02,21,0.00
2019,06,06,02,22,0.10
2019,06,06,02,23,2.00
2019,06,06,02,24,1.70
2019,06,06,02,25,1.40
2019,06,06,02,26,1.30
2019,06,06,02,27,1.00
2019,06,06,02,28,0.00
2019,06,06,02,29,0.00
2019,06,06,02,30,0.00
2019,06,06,02,31,0.00
2019,06,06,02,32,0.00
2019,06,06,02,33,0.00
2019,06,06,02,34,0.00
2019,06,06,02,35,0.00
2019,06,06,02,36,0.70
2019,06,06,02,37,3.10
2019,06,06,02,38,3.70
2019,06,06,02,39,2.60
2019,06,06,02,40,2.60
2019,06,06,02,41,2.30
2019,06,06,02,42,1.40
2019,06,06,02,43,1.00
2019,06,06,02,44,0.20
2019,06,06,02,45,0.00
2019,06,06,02,46,0.00
2019,06,06,02,47,0.00
2019,06,06,02,48,0.00
2019,06,06,02,49,0.00
2019,06,06,02,50,0.00
2019,06,06,02,51,0.00
2019,06,06,02,52,0.00
2019,06,06,02,53,0.00
2019,06,06,02,54,0.00
2019,06,06,02,55,0.00
2019,06,06,02,56,0.00
2019,06,06,02,57,0.00
2019,06,06,02,58,0.00
2019,06,06,02,59,0.00
2019,06,06,03,00,0.00
2019,06,06,03,01,0.00
2019,06,06,03,02,0.00
2019,06,06,03,03,0.00
2019,06,06,03,04,0.00
2019,06,06,03,05,0.00
2019,06,06,03,06,0.00
2019,06,06,03,07,0.00
2019,06,06,03,08,0.00
2019,06,06,03,09,0.00
2019,06,06,03,10,0.00
2019,06,06,03,11,0.00
2019,06,06,03,12,0.00
2019,06,06,03,13,0.00
2019,06,06,03,14,0.00
2019,06,06,03,15,0.00
2019,06,06,03,16,0.00
2019,06,06,03,17,0.00
2019,06,06,03,18,0.00
2019,06,06,03,19,0.00
2019,06,06,03,20,0.00
2019,06,06,03,21,0.00
2019,06,06,03,22,0.00
2019,06,06,03,23,0.00
2019,06,06,03,24,0.00
2019,06,06,03,25,0.00
2019,06,06,03,26,0.00
2019,06,06,03,27,0.00
2019,06,06,03,28,0.00
2019,06,06,03,29,0.00
2019,06,06,03,30,0.00
2019,06,06,03,31,1.50
2019,06,06,03,32,3.40
2019,06,06,03,33,3.40
2019,06,06,03,34,3.00
2019,06,06,03,35,1.90
2019,06,06,03,36,1.60
2019,06,06,03,37,1.50
2019,06,06,03,38,2.60
2019,06,06,03,39,1.60
2019,06,06,03,40,1.70
2019,06,06,03,41,1.80
2019,06,06,03,42,2.60
2019,06,06,03,43,1.10
2019,06,06,03,44,0.00
2019,06,06,03,45,0.00
2019,06,06,03,46,0.00
2019,06,06,03,47,0.00
2019,06,06,03,48,0.00
2019,06,06,03,49,0.20
2019,06,06,03,50,1.10
2019,06,06,03,51,1.60
2019,06,06,03,52,0.20
2019,06,06,03,53,0.00
2019,06,06,03,54,0.00
2019,06,06,03,55,0.00
2019,06,06,03,56,0.00
2019,06,06,03,57,0.00
2019,06,06,03,58,0.00
2019,06,06,03,59,0.00
2019,06,06,04,00,2.10
2019,06,06,04,01,1.80
2019,06,06,04,02,2.10
2019,06,06,04,03,0.60
2019,06,06,04,04,0.00
2019,06,06,04,05,0.00
2019,06,06,04,06,0.00
2019,06,06,04,07,0.00
2019,06,06,04,08,0.00
2019,06,06,04,09,0.30
2019,06,06,04,10,2.40
2019,06,06,04,11,2.30
2019,06,06,04,12,2.30
2019,06,06,04,13,1.90
2019,06,06,04,14,1.20
2019,06,06,04,15,0.00
2019,06,06,04,16,0.00
2019,06,06,04,17,0.00
2019,06,06,04,18,0.10
2019,06,06,04,19,0.70
2019,06,06,04,20,0.00
2019,06,06,04,21,2.00
2019,06,06,04,22,1.50
2019,06,06,04,23,0.20
2019,06,06,04,24,0.00
2019,06,06,04,25,0.00
2019,06,06,04,26,0.00
2019,06,06,04,27,0.40
2019,06,06,04,28,2.70
2019,06,06,04,29,1.80
2019,06,06,04,30,1.80
2019,06,06,04,31,1.90
2019,06,06,04,32,3.20
2019,06,06,04,33,3.30
2019,06,06,04,34,3.30
2019,06,06,04,35,3.10
2019,06,06,04,36,2.40
2019,06,06,04,37,1.40
2019,06,06,04,38,2.00
2019,06,06,04,39,0.70
2019,06,06,04,40,0.00
2019,06,06,04,41,0.00
2019,06,06,04,42,0.00
2019,06,06,04,43,0.00
2019,06,06,04,44,0.00
2019,06,06,04,45,0.00
2019,06,06,04,46,0.00
2019,06,06,04,47,0.00
2019,06,06,04,48,0.00
2019,06,06,04,49,0.00
2019,06,06,04,50,0.00
2019,06,06,04,51,0.00
2019,06,06,04,52,0.00
2019,06,06,04,53,0.00
2019,06,06,04,54,0.00
2019,06,06,04,55,0.00
2019,06,06,04,56,0.00
2019,06,06,04,57,0.00
2019,06,06,04,58,0.00
2019,06,06,04,59,0.00
2019,06,06,05,00,0.00
2019,06,06,05,01,0.00
2019,06,06,05,02,0.00
2019,06,06,05,03,0.00
2019,06,06,05,04,0.00
2019,06,06,05,05,0.00
2019,06,06,05,06,0.00
2019,06,06,05,07,0.00
2019,06,06,05,08,1.40
2019,06,06,05,09,1.30
2019,06,06,05,10,0.70
2019,06,06,05,11,0.00
2019,06,06,05,12,0.00
2019,06,06,05,13,0.00
2019,06,06,05,14,0.00
2019,06,06,05,15,0.00
2019,06,06,05,16,0.30
2019,06,06,05,17,3.30
2019,06,06,05,18,3.00
2019,06,06,05,19,4.10
2019,06,06,05,20,3.60
2019,06,06,05,21,4.00
2019,06,06,05,22,4.40
2019,06,06,05,23,3.90
2019,06,06,05,24,1.70
2019,06,06,05,25,1.70
2019,06,06,05,26,1.10
2019,06,06,05,27,1.30
2019,06,06,05,28,3.50
2019,06,06,05,29,2.60
2019,06,06,05,30,2.40
2019,06,06,05,31,2.40
2019,06,06,05,32,1.70
2019,06,06,05,33,0.50
2019,06,06,05,34,1.60
2019,06,06,05,35,2.70
2019,06,06,05,36,2.50
2019,06,06,05,37,2.70
2019,06,06,05,38,1.70
2019,06,06,05,39,2.40
2019,06,06,05,40,2.30
2019,06,06,05,41,3.30
2019,06,06,05,42,2.00
2019,06,06,05,43,3.60
2019,06,06,05,44,4.30
2019,06,06,05,45,2.60
2019,06,06,05,46,0.10
2019,06,06,05,47,0.40
2019,06,06,05,48,0.00
2019,06,06,05,49,0.00
2019,06,06,05,50,0.00
2019,06,06,05,51,0.00
2019,06,06,05,52,0.00
2019,06,06,05,53,0.00
2019,06,06,05,54,0.00
2019,06,06,05,55,0.00
2019,06,06,05,56,0.00
2019,06,06,05,57,0.00
2019,06,06,05,58,0.00
2019,06,06,05,59,0.00
2019,06,06,06,00,0.00
2019,06,06,06,01,0.00
2019,06,06,06,02,0.00
2019,06,06,06,03,0.00
2019,06,06,06,04,0.00
2019,06,06,06,05,0.00
2019,06,06,06,06,0.00
2019,06,06,06,07,0.00
2019,06,06,06,08,0.00
2019,06,06,06,09,0.00
2019,06,06,06,10,0.00
2019,06,06,06,11,0.00
2019,06,06,06,12,0.00
2019,06,06,06,13,0.00
2019,06,06,06,14,0.00
2019,06,06,06,15,0.00
2019,06,06,06,16,0.00
2019,06,06,06,17,0.00
2019,06,06,06,18,0.00
2019,06,06,06,19,0.00
2019,06,06,06,20,0.00
2019,06,06,06,21,0.00
2019,06,06,06,22,0.00
2019,06,06,06,23,0.00
2019,06,06,06,24,0.00
2019,06,06,06,25,0.00
2019,06,06,06,26,0.00
2019,06,06,06,27,0.00
2019,06,06,06,28,0.00
2019,06,06,06,29,0.00
2019,06,06,06,30,0.00
2019,06,06,06,31,0.00
2019,06,06,06,32,0.00
2019,06,06,06,33,0.00
2019,06,06,06,34,0.00
2019,06,06,06,35,0.00
2019,06,06,06,36,0.00
2019,06,06,06,37,0.00
2019,06,06,06,38,0.00
2019,06,06,06,39,0.00
2019,06,06,06,40,0.00
2019,06,06,06,41,0.00
2019,06,06,06,42,0.00
2019,06,06,06,43,0.00
2019,06,06,06,44,1.30
2019,06,06,06,45,4.20
2019,06,06,06,46,2.00
2019,06,06,06,47,2.50
2019,06,06,06,48,1.80
2019,06,06,06,49,1.40
2019,06,06,06,50,0.00
2019,06,06,06,51,0.00
2019,06,06,06,52,0.00
2019,06,06,06,53,0.00
2019,06,06,06,54,0.00
2019,06,06,06,55,0.10
2019,06,06,06,56,1.80
2019,06,06,06,57,1.10
2019,06,06,06,58,0.70
2019,06,06,06,59,0.00
2019,06,06,07,00,0.00
2019,06,06,07,01,0.00
2019,06,06,07,02,0.00
2019,06,06,07,03,0.00
2019,06,06,07,04,0.00
2019,06,06,07,05,0.00
2019,06,06,07,06,0.40
2019,06,06,07,07,1.40
2019,06,06,07,08,1.60
2019,06,06,07,09,1.10
2019,06,06,07,10,1.50
2019,06,06,07,11,0.70
2019,06,06,07,12,0.00
2019,06,06,07,13,0.00
2019,06,06,07,14,0.00
2019,06,06,07,15,0.20
2019,06,06,07,16,0.60
2019,06,06,07,17,1.70
2019,06,06,07,18,1.40
2019,06,06,07,19,0.10
2019,06,06,07,20,0.00
2019,06,06,07,21,0.00
2019,06,06,07,22,0.00
2019,06,06,07,23,0.00
2019,06,06,07,24,0.00
2019,06,06,07,25,0.00
2019,06,06,07,26,0.00
2019,06,06,07,27,0.00
2019,06,06,07,28,1.80
2019,06,06,07,29,0.20
2019,06,06,07,30,0.00
2019,06,06,07,31,2.10
2019,06,06,07,32,0.80
2019,06,06,07,33,2.10
2019,06,06,07,34,2.80
2019,06,06,07,35,2.80
2019,06,06,07,36,2.40
2019,06,06,07,37,1.90
2019,06,06,07,38,2.70
2019,06,06,07,39,2.20
2019,06,06,07,40,1.70
2019,06,06,07,41,1.60
2019,06,06,07,42,0.10
2019,06,06,07,43,0.20
2019,06,06,07,44,0.20
2019,06,06,07,45,0.50
2019,06,06,07,46,1.00
2019,06,06,07,47,0.80
2019,06,06,07,48,1.30
2019,06,06,07,49,0.30
2019,06,06,07,50,0.10
2019,06,06,07,51,1.30
2019,06,06,07,52,1.40
2019,06,06,07,53,0.40
2019,06,06,07,54,1.20
2019,06,06,07,55,0.00
2019,06,06,07,56,0.30
2019,06,06,07,57,0.00
2019,06,06,07,58,0.10
2019,06,06,07,59,1.70
2019,06,06,08,00,1.20
2019,06,06,08,01,0.00
2019,06,06,08,02,0.00
2019,06,06,08,03,0.20
2019,06,06,08,04,3.10
2019,06,06,08,05,3.70
2019,06,06,08,06,1.90
2019,06,06,08,07,0.00
2019,06,06,08,08,0.00
2019,06,06,08,09,2.30
2019,06,06,08,10,2.70
2019,06,06,08,11,1.40
2019,06,06,08,12,2.30
2019,06,06,08,13,3.40
2019,06,06,08,14,2.90
2019,06,06,08,15,4.30
2019,06,06,08,16,4.90
2019,06,06,08,17,3.40
2019,06,06,08,18,4.40
2019,06,06,08,19,2.30
2019,06,06,08,20,3.70
2019,06,06,08,21,3.30
2019,06,06,08,22,2.10
2019,06,06,08,23,1.20
2019,06,06,08,24,3.70
2019,06,06,08,25,3.70
2019,06,06,08,26,5.20
2019,06,06,08,27,3.70
2019,06,06,08,28,2.60
2019,06,06,08,29,2.40
2019,06,06,08,30,2.70
2019,06,06,08,31,1.30
2019,06,06,08,32,1.60
2019,06,06,08,33,1.40
2019,06,06,08,34,2.90
2019,06,06,08,35,4.40
2019,06,06,08,36,6.80
2019,06,06,08,37,7.20
2019,06,06,08,38,6.40
2019,06,06,08,39,4.50
2019,06,06,08,40,5.80
2019,06,06,08,41,7.80
2019,06,06,08,42,8.70
2019,06,06,08,43,7.70
2019,06,06,08,44,3.40
2019,06,06,08,45,3.90
2019,06,06,08,46,4.70
2019,06,06,08,47,2.00
2019,06,06,08,48,5.20
2019,06,06,08,49,6.40
2019,06,06,08,50,2.70
2019,06,06,08,51,5.10
2019,06,06,08,52,5.90
2019,06,06,08,53,5.50
2019,06,06,08,54,7.10
2019,06,06,08,55,6.90
2019,06,06,08,56,7.60
2019,06,06,08,57,6.90
2019,06,06,08,58,5.60
2019,06,06,08,59,3.20
2019,06,06,09,00,5.50
2019,06,06,09,01,5.80
2019,06,06,09,02,5.20
2019,06,06,09,03,6.90
2019,06,06,09,04,5.30
2019,06,06,09,05,3.80
2019,06,06,09,06,4.30
2019,06,06,09,07,5.40
2019,06,06,09,08,2.40
2019,06,06,09,09,3.80
2019,06,06,09,10,6.60
2019,06,06,09,11,4.20
2019,06,06,09,12,4.60
2019,06,06,09,13,6.00
2019,06,06,09,14,3.60
2019,06,06,09,15,5.60
2019,06,06,09,16,4.20
2019,06,06,09,17,4.80
2019,06,06,09,18,7.40
2019,06,06,09,19,5.60
2019,06,06,09,20,4.30
2019,06,06,09,21,4.90
2019,06,06,09,22,5.40
2019,06,06,09,23,6.70
2019,06,06,09,24,5.70
2019,06,06,09,25,2.30
2019,06,06,09,26,1.70
2019,06,06,09,27,4.20
2019,06,06,09,28,3.80
2019,06,06,09,29,4.90
2019,06,06,09,30,3.00
2019,06,06,09,31,3.20
2019,06,06,09,32,6.30
2019,06,06,09,33,4.30
2019,06,06,09,34,3.90
2019,06,06,09,35,8.80
2019,06,06,09,36,10.70
2019,06,06,09,37,8.20
2019,06,06,09,38,6.50
2019,06,06,09,39,5.20
2019,06,06,09,40,8.10
2019,06,06,09,41,5.20
2019,06,06,09,42,11.10
2019,06,06,09,43,8.60
2019,06,06,09,44,7.70
2019,06,06,09,45,4.00
2019,06,06,09,46,5.40
2019,06,06,09,47,8.50
2019,06,06,09,48,8.20
2019,06,06,09,49,4.30
2019,06,06,09,50,3.30
2019,06,06,09,51,6.10
2019,06,06,09,52,8.80
2019,06,06,09,53,7.90
2019,06,06,09,54,9.60
2019,06,06,09,55,9.60
2019,06,06,09,56,9.60
2019,06,06,09,57,9.60
2019,06,06,09,58,9.60
2019,06,06,09,59,7.40
2019,06,06,10,00,4.60
2019,06,06,10,01,11.50
2019,06,06,10,02,10.00
2019,06,06,10,03,5.60
2019,06,06,10,04,4.50
2019,06,06,10,05,5.80
2019,06,06,10,06,4.80
2019,06,06,10,07,4.60
2019,06,06,10,08,12.40
2019,06,06,10,09,11.10
2019,06,06,10,10,6.60
2019,06,06,10,11,7.80
2019,06,06,10,12,9.00
2019,06,06,10,13,3.20
2019,06,06,10,14,5.50
2019,06,06,10,15,10.50
2019,06,06,10,16,13.80
2019,06,06,10,17,12.60
2019,06,06,10,18,8.40
2019,06,06,10,19,12.80
2019,06,06,10,20,14.00
2019,06,06,10,21,9.20
2019,06,06,10,22,4.80
2019,06,06,10,23,9.10
2019,06,06,10,24,8.60
2019,06,06,10,25,7.40
2019,06,06,10,26,11.20
2019,06,06,10,27,11.00
2019,06,06,10,28,11.40
2019,06,06,10,29,11.80
2019,06,06,10,30,11.10
2019,06,06,10,31,14.20
2019,06,06,10,32,14.50
2019,06,06,10,33,8.70
2019,06,06,10,34,12.70
2019,06,06,10,35,9.60
2019,06,06,10,36,10.60
2019,06,06,10,37,8.50
2019,06,06,10,38,11.20
2019,06,06,10,39,11.20
2019,06,06,10,40,10.80
2019,06,06,10,41,13.80
2019,06,06,10,42,13.60
2019,06,06,10,43,10.10
2019,06,06,10,44,14.40
2019,06,06,10,45,7.90
2019,06,06,10,46,5.40
2019,06,06,10,47,7.50
2019,06,06,10,48,11.60
2019,06,06,10,49,14.40
2019,06,06,10,50,8.30
2019,06,06,10,51,18.60
2019,06,06,10,52,15.80
2019,06,06,10,53,12.20
2019,06,06,10,54,12.40
2019,06,06,10,55,11.40
2019,06,06,10,56,15.90
2019,06,06,10,57,10.90
2019,06,06,10,58,11.00
2019,06,06,10,59,9.40
2019,06,06,11,00,5.60
2019,06,06,11,01,6.90
2019,06,06,11,02,9.50
2019,06,06,11,03,16.00
2019,06,06,11,04,14.50
2019,06,06,11,05,11.60
2019,06,06,11,06,15.40
2019,06,06,11,07,11.20
2019,06,06,11,08,11.90
2019,06,06,11,09,14.10
2019,06,06,11,10,14.40
2019,06,06,11,11,14.30
2019,06,06,11,12,11.60
2019,06,06,11,13,13.20
2019,06,06,11,14,15.10
2019,06,06,11,15,8.70
2019,06,06,11,16,13.20
2019,06,06,11,17,11.80
2019,06,06,11,18,16.10
2019,06,06,11,19,12.60
2019,06,06,11,20,12.00
2019,06,06,11,21,17.30
2019,06,06,11,22,12.30
2019,06,06,11,23,11.60
2019,06,06,11,24,12.30
2019,06,06,11,25,12.30
2019,06,06,11,26,14.80
2019,06,06,11,27,10.80
2019,06,06,11,28,14.00
2019,06,06,11,29,11.80
2019,06,06,11,30,15.20
2019,06,06,11,31,18.70
2019,06,06,11,32,14.80
2019,06,06,11,33,14.70
2019,06,06,11,34,13.70
2019,06,06,11,35,14.00
2019,06,06,11,36,15.40
2019,06,06,11,37,13.30
2019,06,06,11,38,16.50
2019,06,06,11,39,7.50
2019,06,06,11,40,7.80
2019,06,06,11,41,3.60
2019,06,06,11,42,11.40
2019,06,06,11,43,13.10
2019,06,06,11,44,8.20
2019,06,06,11,45,7.50
2019,06,06,11,46,6.90
2019,06,06,11,47,10.30
2019,06,06,11,48,15.40
2019,06,06,11,49,12.30
2019,06,06,11,50,5.70
2019,06,06,11,51,4.10
2019,06,06,11,52,6.00
2019,06,06,11,53,5.40
2019,06,06,11,54,8.40
2019,06,06,11,55,5.00
2019,06,06,11,56,11.70
2019,06,06,11,57,10.00
2019,06,06,11,58,8.80
2019,06,06,11,59,7.60
2019,06,06,12,00,7.60
2019,06,06,12,01,11.80
2019,06,06,12,02,11.80
2019,06,06,12,03,7.00
2019,06,06,12,04,13.20
2019,06,06,12,05,10.40
2019,06,06,12,06,8.80
2019,06,06,12,07,9.60
2019,06,06,12,08,3.10
2019,06,06,12,09,9.20
2019,06,06,12,10,7.60
2019,06,06,12,11,11.40
2019,06,06,12,12,12.70
2019,06,06,12,13,13.60
2019,06,06,12,14,4.90
2019,06,06,12,15,4.20
2019,06,06,12,16,10.00
2019,06,06,12,17,12.40
2019,06,06,12,18,12.00
2019,06,06,12,19,19.30
2019,06,06,12,20,13.20
2019,06,06,12,21,10.70
2019,06,06,12,22,14.30
2019,06,06,12,23,16.30
2019,06,06,12,24,14.10
2019,06,06,12,25,11.00
2019,06,06,12,26,7.00
2019,06,06,12,27,10.00
2019,06,06,12,28,16.30
2019,06,06,12,29,9.10
2019,06,06,12,30,9.80
2019,06,06,12,31,18.70
2019,06,06,12,32,11.60
2019,06,06,12,33,7.60
2019,06,06,12,34,6.40
2019,06,06,12,35,5.70
2019,06,06,12,36,7.00
2019,06,06,12,37,7.90
2019,06,06,12,38,13.30
2019,06,06,12,39,11.00
2019,06,06,12,40,17.90
2019,06,06,12,41,12.30
2019,06,06,12,42,11.30
2019,06,06,12,43,14.00
2019,06,06,12,44,16.50
2019,06,06,12,45,13.50
2019,06,06,12,46,7.50
2019,06,06,12,47,8.50
2019,06,06,12,48,12.80
2019,06,06,12,49,18.40
2019,06,06,12,50,14.10
2019,06,06,12,51,9.20
2019,06,06,12,52,4.60
2019,06,06,12,53,5.40
2019,06,06,12,54,11.40
2019,06,06,12,55,9.80
2019,06,06,12,56,13.20
2019,06,06,12,57,13.20
2019,06,06,12,58,8.30
2019,06,06,12,59,12.10
2019,06,06,13,00,10.60
2019,06,06,13,01,11.90
2019,06,06,13,02,12.60
2019,06,06,13,03,9.40
2019,06,06,13,04,11.90
2019,06,06,13,05,18.10
2019,06,06,13,06,5.70
2019,06,06,13,07,7.60
2019,06,06,13,08,12.10
2019,06,06,13,09,14.20
2019,06,06,13,10,12.30
2019,06,06,13,11,7.40
2019,06,06,13,12,7.20
2019,06,06,13,13,7.60
2019,06,06,13,14,12.00
2019,06,06,13,15,12.40
2019,06,06,13,16,19.20
2019,06,06,13,17,14.70
2019,06,06,13,18,12.30
2019,06,06,13,19,15.10
2019,06,06,13,20,16.40
2019,06,06,13,21,12.80
2019,06,06,13,22,15.50
2019,06,06,13,23,13.80
2019,06,06,13,24,12.10
2019,06,06,13,25,18.30
2019,06,06,13,26,13.20
2019,06,06,13,27,15.30
2019,06,06,13,28,17.30
2019,06,06,13,29,12.30
2019,06,06,13,30,16.80
2019,06,06,13,31,13.80
2019,06,06,13,32,9.50
2019,06,06,13,33,15.10
2019,06,06,13,34,13.70
2019,06,06,13,35,15.10
2019,06,06,13,36,15.60
2019,06,06,13,37,10.60
2019,06,06,13,38,7.10
2019,06,06,13,39,7.70
2019,06,06,13,40,8.20
2019,06,06,13,41,6.90
2019,06,06,13,42,11.50
2019,06,06,13,43,15.80
2019,06,06,13,44,13.10
2019,06,06,13,45,6.40
2019,06,06,13,46,12.30
2019,06,06,13,47,10.00
2019,06,06,13,48,14.60
2019,06,06,13,49,15.20
2019,06,06,13,50,15.60
2019,06,06,13,51,19.70
2019,06,06,13,52,18.40
2019,06,06,13,53,12.70
2019,06,06,13,54,10.70
2019,06,06,13,55,14.20
2019,06,06,13,56,13.80
2019,06,06,13,57,15.30
2019,06,06,13,58,17.60
2019,06,06,13,59,20.60
2019,06,06,14,00,14.80
2019,06,06,14,01,14.90
2019,06,06,14,02,12.50
2019,06,06,14,03,16.00
2019,06,06,14,04,10.40
2019,06,06,14,05,7.40
2019,06,06,14,06,11.30
2019,06,06,14,07,13.20
2019,06,06,14,08,17.80
2019,06,06,14,09,15.30
2019,06,06,14,10,14.10
2019,06,06,14,11,19.80
2019,06,06,14,12,11.90
2019,06,06,14,13,15.70
2019,06,06,14,14,12.60
2019,06,06,14,15,16.60
2019,06,06,14,16,15.70
2019,06,06,14,17,7.60
2019,06,06,14,18,10.00
2019,06,06,14,19,12.50
2019,06,06,14,20,12.70
2019,06,06,14,21,15.40
2019,06,06,14,22,12.20
2019,06,06,14,23,16.00
2019,06,06,14,24,8.60
2019,06,06,14,25,10.70
2019,06,06,14,26,8.80
2019,06,06,14,27,6.90
2019,06,06,14,28,7.10
2019,06,06,14,29,7.80
2019,06,06,14,30,7.20
2019,06,06,14,31,11.60
2019,06,06,14,32,7.60
2019,06,06,14,33,9.70
2019,06,06,14,34,11.40
2019,06,06,14,35,12.10
2019,06,06,14,36,7.70
2019,06,06,14,37,4.80
2019,06,06,14,38,4.40
2019,06,06,14,39,4.30
2019,06,06,14,40,4.80
2019,06,06,14,41,4.30
2019,06,06,14,42,6.00
2019,06,06,14,43,13.10
2019,06,06,14,44,11.10
2019,06,06,14,45,13.60
2019,06,06,14,46,9.40
2019,06,06,14,47,7.50
2019,06,06,14,48,7.70
2019,06,06,14,49,6.90
2019,06,06,14,50,11.30
2019,06,06,14,51,14.60
2019,06,06,14,52,15.30
2019,06,06,14,53,11.00
2019,06,06,14,54,13.80
2019,06,06,14,55,13.90
2019,06,06,14,56,14.90
2019,06,06,14,57,11.10
2019,06,06,14,58,11.90
2019,06,06,14,59,6.90
2019,06,06,15,00,8.50
2019,06,06,15,01,11.30
2019,06,06,15,02,14.40
2019,06,06,15,03,13.00
2019,06,06,15,04,7.50
2019,06,06,15,05,6.30
2019,06,06,15,06,5.00
2019,06,06,15,07,12.50
2019,06,06,15,08,13.20
2019,06,06,15,09,10.70
2019,06,06,15,10,8.20
2019,06,06,15,11,7.60
2019,06,06,15,12,10.30
2019,06,06,15,13,7.50
2019,06,06,15,14,6.40
2019,06,06,15,15,9.10
2019,06,06,15,16,5.30
2019,06,06,15,17,8.40
2019,06,06,15,18,5.80
2019,06,06,15,19,6.40
2019,06,06,15,20,4.20
2019,06,06,15,21,7.50
2019,06,06,15,22,7.50
2019,06,06,15,23,7.20
2019,06,06,15,24,5.70
2019,06,06,15,25,3.30
2019,06,06,15,26,6.20
2019,06,06,15,27,11.10
2019,06,06,15,28,6.20
2019,06,06,15,29,3.70
2019,06,06,15,30,4.30
2019,06,06,15,31,4.80
2019,06,06,15,32,7.40
2019,06,06,15,33,3.30
2019,06,06,15,34,4.00
2019,06,06,15,35,5.50
2019,06,06,15,36,4.30
2019,06,06,15,37,3.90
2019,06,06,15,38,2.90
2019,06,06,15,39,4.90
2019,06,06,15,40,3.20
2019,06,06,15,41,3.50
2019,06,06,15,42,6.10
2019,06,06,15,43,6.70
2019,06,06,15,44,4.80
2019,06,06,15,45,3.70
2019,06,06,15,46,6.00
2019,06,06,15,47,6.30
2019,06,06,15,48,7.00
2019,06,06,15,49,6.30
2019,06,06,15,50,8.20
2019,06,06,15,51,6.10
2019,06,06,15,52,3.50
2019,06,06,15,53,4.20
2019,06,06,15,54,5.60
2019,06,06,15,55,4.60
2019,06,06,15,56,3.50
2019,06,06,15,57,4.00
2019,06,06,15,58,2.30
2019,06,06,15,59,1.50
2019,06,06,16,00,4.80
2019,06,06,16,01,5.70
2019,06,06,16,02,3.60
2019,06,06,16,03,0.50
2019,06,06,16,04,0.50
2019,06,06,16,05,1.90
2019,06,06,16,06,2.70
2019,06,06,16,07,4.20
2019,06,06,16,08,3.70
2019,06,06,16,09,1.70
2019,06,06,16,10,1.70
2019,06,06,16,11,1.90
2019,06,06,16,12,4.30
2019,06,06,16,13,2.70
2019,06,06,16,14,2.40
2019,06,06,16,15,2.70
2019,06,06,16,16,0.70
2019,06,06,16,17,0.30
2019,06,06,16,18,1.80
2019,06,06,16,19,1.30
2019,06,06,16,20,2.70
2019,06,06,16,21,2.80
2019,06,06,16,22,1.30
2019,06,06,16,23,1.10
2019,06,06,16,24,0.80
2019,06,06,16,25,1.60
2019,06,06,16,26,2.10
2019,06,06,16,27,2.40
2019,06,06,16,28,2.00
2019,06,06,16,29,3.20
2019,06,06,16,30,2.60
2019,06,06,16,31,3.30
2019,06,06,16,32,2.50
2019,06,06,16,33,2.40
2019,06,06,16,34,2.40
2019,06,06,16,35,2.20
2019,06,06,16,36,1.30
2019,06,06,16,37,1.00
2019,06,06,16,38,5.60
2019,06,06,16,39,3.40
2019,06,06,16,40,5.50
2019,06,06,16,41,4.10
2019,06,06,16,42,3.60
2019,06,06,16,43,4.60
2019,06,06,16,44,3.20
2019,06,06,16,45,2.70
2019,06,06,16,46,4.50
2019,06,06,16,47,6.70
2019,06,06,16,48,3.90
2019,06,06,16,49,3.00
2019,06,06,16,50,2.50
2019,06,06,16,51,5.30
2019,06,06,16,52,4.70
2019,06,06,16,53,5.70
2019,06,06,16,54,7.60
2019,06,06,16,55,4.00
2019,06,06,16,56,2.90
2019,06,06,16,57,6.10
2019,06,06,16,58,3.40
2019,06,06,16,59,6.30
2019,06,06,17,00,4.60
2019,06,06,17,01,4.90
2019,06,06,17,02,5.50
2019,06,06,17,03,7.50
2019,06,06,17,04,7.90
2019,06,06,17,05,8.10
2019,06,06,17,06,8.90
2019,06,06,17,07,5.70
2019,06,06,17,08,7.70
2019,06,06,17,09,2.30
2019,06,06,17,10,6.70
2019,06,06,17,11,3.70
2019,06,06,17,12,5.50
2019,06,06,17,13,3.10
2019,06,06,17,14,10.50
2019,06,06,17,15,6.10
2019,06,06,17,16,2.90
2019,06,06,17,17,2.80
2019,06,06,17,18,1.40
2019,06,06,17,19,3.90
2019,06,06,17,20,3.20
2019,06,06,17,21,3.00
2019,06,06,17,22,1.10
2019,06,06,17,23,3.70
2019,06,06,17,24,5.50
2019,06,06,17,25,7.00
2019,06,06,17,26,5.20
2019,06,06,17,27,3.20
2019,06,06,17,28,5.10
2019,06,06,17,29,7.90
2019,06,06,17,30,9.50
2019,06,06,17,31,6.30
2019,06,06,17,32,4.90
2019,06,06,17,33,4.10
2019,06,06,17,34,3.20
2019,06,06,17,35,4.00
2019,06,06,17,36,2.00
2019,06,06,17,37,2.90
2019,06,06,17,38,6.00
2019,06,06,17,39,5.60
2019,06,06,17,40,4.70
2019,06,06,17,41,4.00
2019,06,06,17,42,5.80
2019,06,06,17,43,7.30
2019,06,06,17,44,8.80
2019,06,06,17,45,5.00
2019,06,06,17,46,3.00
2019,06,06,17,47,5.50
2019,06,06,17,48,8.30
2019,06,06,17,49,8.40
2019,06,06,17,50,8.30
2019,06,06,17,51,5.70
2019,06,06,17,52,4.40
2019,06,06,17,53,7.40
2019,06,06,17,54,7.80
2019,06,06,17,55,6.40
2019,06,06,17,56,3.20
2019,06,06,17,57,3.80